Regional Weather Roundup
Issued by NWS

Home | Current Version | Previous Version | Graphics & Text | Print | Product List | Glossary On
Versions: 1 2 3 4 5 6 7 8 9 10 11 12 13 14 15 16 17 18 19 20 21 22 23 24 25 26 27 28 29 30 31 32 33 34 35 36 37 38 39 40 41 42 43 44 45 46 47 48 49 50
130
ASUS43 KFSD 271010
RWRSD

WEATHER ROUNDUP FOR SOUTH DAKOTA
NATIONAL WEATHER SERVICE SIOUX FALLS SD
500 AM CDT TUE JUN 27 2017

NOTE: "FAIR" INDICATES FEW OR NO CLOUDS BELOW 12,000 FEET WITH NO
SIGNIFICANT WEATHER AND/OR OBSTRUCTIONS TO VISIBILITY.


SDZ001>005-009-010-012>017-271100-
NORTHWEST AND NORTH CENTRAL SOUTH DAKOTA

CITY           SKY/WX    TMP DP  RH WIND       PRES   REMARKS
BUFFALO          N/A     57  40  52 SE12      29.73F
FAITH            N/A     57  41  55 SE22G31   29.85F
MOBRIDGE       MOCLDY    61  40  45 S18       29.91F
$$

SDZ012>016-024>037-041>051-057-063-072>074-271100-
SOUTHWEST AND SOUTH CENTRAL SOUTH DAKOTA

CITY           SKY/WX    TMP DP  RH WIND       PRES   REMARKS
RAPID CTY ARPT PTCLDY    61  42  49 S15       29.86F
PIERRE         PTCLDY    55  40  56 SE13      29.95F
CUSTER         CLEAR     57  49  74 SW7       30.00F
ELLSWORTH AFB  PTCLDY    62  43  49 S17       29.84F
PHILIP         MOCLDY    61  44  53 S6        29.91F
PINE RIDGE     CLOUDY    62  50  64 S32G47    29.89F
SPEARFISH      FAIR      75  50  41 SW24G35   29.79F
WINNER         FAIR      60  44  55 S20       29.99F
$$

SDZ004>011-016>023-039-040-271100-
NORTHEAST SOUTH DAKOTA

CITY           SKY/WX    TMP DP  RH WIND       PRES   REMARKS
ABERDEEN       PTCLDY    47  41  80 S9        30.01F
WATERTOWN      CLEAR     48  40  73 S8        30.06F
BROOKINGS      CLEAR     48  40  73 S7        30.08F
SISSETON         N/A     49  41  74 S9        30.02F
$$

SDZ017-020-022-023-036>040-048>070-271100-
SOUTHEAST SOUTH DAKOTA

CITY           SKY/WX    TMP DP  RH WIND       PRES   REMARKS
SIOUX FALLS    PTCLDY    54  44  69 S12       30.09F
HURON          CLEAR     49  42  77 SE9       30.03F
CHAMBERLAIN    CLEAR     55  45  68 SE9       30.01F
MITCHELL       CLEAR     52  43  71 SE9       30.05F
YANKTON        CLEAR     49  42  77 E5        30.08F
$$

ABBREVIATIONS USED IN REMARKS
   TC - TEMPERATURE IN CELSIUS
  WCI - WIND CHILL INDEX
   HX - HEAT INDEX
  VSB - VISIBILITY





USA.gov is the U.S. government's official web portal to all federal, state and local government web resources and services.